Regional Weather Roundup
Issued by NWS

Home | Current Version | Previous Version | Graphics & Text | Print | Product List | Glossary On
Versions: 1 2 3 4 5 6 7 8 9 10 11 12 13 14 15 16 17 18 19 20 21 22 23 24 25 26 27 28 29 30 31 32 33 34 35 36 37 38 39 40 41 42 43 44 45 46 47 48 49 50
000
ASUS43 KTOP 261459
RWRKS

WEATHER ROUNDUP FOR KANSAS
NATIONAL WEATHER SERVICE GOODLAND KS
900 AM CST THU FEB 26 2015

NOTE:  "FAIR" INDICATES FEW OR NO CLOUDS BELOW 12,000 FEET WITH NO
SIGNIFICANT WEATHER AND/OR OBSTRUCTIONS TO VISIBILITY.

KSZ001>006-013>018-027>032-041>047-261600-
NORTHWEST KANSAS

CITY           SKY/WX    TMP DP  RH WIND       PRES   REMARKS
GOODLAND       CLOUDY    14   7  73 NE10      30.31R WCI   1
HAYS           SUNNY     12  -6  44 N18       30.43S WCI  -5
HILL CITY      SUNNY     12   1  61 N13       30.45R WCI  -3
RUSSELL        FAIR      12   0  58 N21       30.44R WCI  -7
$$

KSZ061>065-074>080-084>089-261600-
SOUTHWEST KANSAS

CITY           SKY/WX    TMP DP  RH WIND       PRES   REMARKS
DODGE CITY     PTSUNNY   15   5  64 N21G31    30.37R WCI  -2
ELKHART          N/A     17  10  74 NE12        N/A  WCI   4
GARDEN CITY    FAIR      15   7  70 NE18      30.36R WCI  -2
GREAT BEND     MOSUNNY   12  -2  52 N20       30.45R WCI  -6
LIBERAL        PTSUNNY   18   9  68 NE21      30.36R WCI   1
$$

KSZ066>073-081>083-090>101-261600-
SOUTHEAST KANSAS

CITY           SKY/WX    TMP DP  RH WIND       PRES   REMARKS
CHANUTE        PTSUNNY   15   5  64 N17G29    30.38R WCI  -1
COFFEYVILLE    MOSUNNY   16   4  59 N23G32    30.39R WCI  -2
HUTCHINSON     PTSUNNY   13  -2  51 N20G30    30.44R WCI  -5
MEDICINE LODGE   N/A     15  -1  49 N23G31    30.43R WCI  -3
NEWTON         MOSUNNY   10  -2  56 N28       30.40R WCI -11
PARSONS        MOSUNNY   16   5  62 N17G28    30.39R WCI   0
WICHITA INTL   PTSUNNY   15  -1  49 N21G26    30.43R WCI  -2
WICHITA JABRA  MOSUNNY   14   1  56 N28       30.41R WCI  -6
WINFIELD       CLOUDY    16   7  67 N24       30.42R WCI  -2
$$

KSZ007>012-019>026-033>040-048>060-102>105-261600-
NORTHEAST KANSAS

CITY           SKY/WX    TMP DP  RH WIND       PRES   REMARKS
CONCORDIA      SUNNY      8  -3  61 N22       30.47R WCI -12
EMPORIA        MOSUNNY   11   2  67 N21G28    30.41R WCI  -8
LAWRENCE       SUNNY     11   1  64 N21       30.45R WCI  -8
MANHATTAN      SUNNY     10  -2  58 N12G22    30.48R WCI  -5
OLATHE IND     MOSUNNY   11   2  67 N22       30.41R WCI  -8
OLATHE EXE     SUNNY     11   0  61 N17G26    30.38R WCI  -6
SALINA         SUNNY     12  -3  51 N22       30.48R WCI  -7
TOPEKA BILLARD SUNNY     12   1  61 N17       30.46R WCI  -5
TOPEKA FORBES  SUNNY     12   1  61 N17G29    30.43R WCI  -5
$$



USA.gov is the U.S. government's official web portal to all federal, state and local government web resources and services.